This demonstration page uses our WeatherBlox Daily Observations layout. Learn more.

Left ArrowRight Arrow

Hourly Observations for February 27, 2019

Temp ( °F °C ) Dew Point ( °F °C ) Humidity (%) Winds ( mph kmh ) Pressure ( in mb ) Visibility ( mi km ) Precip ( " mm )
12:15 am 00:15 Clear 34 1 25 -4 70 70 NNE 6 9 30.42 1030 10 16.0934 0 0
12:35 am 00:35 Clear 34 1 25 -4 70 70 NNE 5 7 30.42 1030 10 16.0934 0 0
12:55 am 00:55 Clear 32 0 25 -4 75 75 NNE 6 9 30.42 1030 10 16.0934 0 0
1:15 am 01:15 Clear 32 0 25 -4 75 75 NNE 6 9 30.42 1030 10 16.0934 0 0
1:35 am 01:35 Clear 32 0 25 -4 75 75 NNE 7 11 30.41 1030 10 16.0934 0 0
1:55 am 01:55 Clear 32 0 25 -4 75 75 NE 5 7 30.4 1030 10 16.0934 0 0
2:15 am 02:15 Clear 32 0 25 -4 75 75 NNE 3 6 30.4 1030 10 16.0934 0 0
2:35 am 02:35 Clear 32 0 25 -4 75 75 NNE 5 7 30.4 1030 10 16.0934 0 0
2:55 am 02:55 Clear 32 0 23 -5 69 69 NNE 6 9 30.4 1030 10 16.0934 0 0
3:15 am 03:15 Clear 32 0 25 -4 75 75 NNE 5 7 30.4 1030 10 16.0934 0 0
3:35 am 03:35 Clear 32 0 23 -5 69 69 NNE 3 6 30.4 1030 10 16.0934 0 0
3:55 am 03:55 Clear 32 0 23 -5 69 69 NNE 5 7 30.4 1030 10 16.0934 0 0
4:15 am 04:15 Clear 30 -1 23 -5 75 75 NNE 3 6 30.41 1030 10 16.0934 0 0
4:35 am 04:35 Clear 30 -1 23 -5 75 75 Calm 30.4 1030 10 16.0934 0 0
4:55 am 04:55 Clear 30 -1 23 -5 75 75 Calm 30.41 1030 10 16.0934 0 0
5:15 am 05:15 Partly Cloudy 30 -1 23 -5 75 75 Calm 30.41 1030 10 16.0934 0 0
5:35 am 05:35 Mostly Cloudy 30 -1 23 -5 75 75 N 6 9 30.42 1030 10 16.0934 0 0
5:55 am 05:55 Partly Cloudy 30 -1 23 -5 75 75 Calm 30.41 1030 10 16.0934 0 0
6:15 am 06:15 Clear 30 -1 23 -5 75 75 Calm 30.42 1030 10 16.0934 0 0
6:35 am 06:35 Clear 30 -1 23 -5 75 75 Calm 30.42 1030 10 16.0934 0 0
6:55 am 06:55 Sunny 30 -1 23 -5 75 75 Calm 30.41 1030 10 16.0934 0 0
7:15 am 07:15 Sunny 30 -1 23 -5 75 75 Calm 30.41 1030 10 16.0934 0 0
7:35 am 07:35 Sunny 30 -1 23 -5 75 75 ENE 3 6 30.4 1030 10 16.0934 0 0
7:55 am 07:55 Sunny 32 0 23 -5 69 69 NE 3 6 30.41 1030 10 16.0934 0 0
8:15 am 08:15 Sunny 32 0 23 -5 69 69 NE 6 9 30.42 1030 10 16.0934 0 0
8:35 am 08:35 Sunny 32 0 23 -5 69 69 ENE 10 17 30.41 1030 10 16.0934 0 0
8:55 am 08:55 Sunny 32 0 23 -5 69 69 ENE 5 7 30.41 1030 10 16.0934 0 0
9:15 am 09:15 Sunny 32 0 23 -5 69 69 E 7 11 30.4 1030 10 16.0934 0 0
9:35 am 09:35 Sunny 34 1 25 -4 70 70 SE 5 7 30.4 1029 10 16.0934 0 0
9:55 am 09:55 Sunny 36 2 25 -4 65 65 ESE 5 7 30.39 1029 10 16.0934 0 0
10:15 am 10:15 Sunny 36 2 27 -3 70 70 SE 12 19 30.37 1028 10 16.0934 0 0
10:35 am 10:35 Sunny 36 2 27 -3 70 70 ESE 8 13 30.35 1028 10 16.0934 0 0
10:55 am 10:55 Mostly Cloudy 37 3 27 -3 65 65 SE 7 11 30.34 1027 10 16.0934 0 0
11:15 am 11:15 Mostly Cloudy 37 3 27 -3 65 65 SSE 7 11 30.33 1027 10 16.0934 0 0
11:35 am 11:35 Cloudy 39 4 27 -3 61 61 SE 8 13 30.32 1027 10 16.0934 0 0
11:55 am 11:55 Cloudy 41 5 27 -3 57 57 SSE 8 13 30.3 1026 10 16.0934 0 0
12:15 pm 12:15 Cloudy 41 5 28 -2 61 61 SSE 10 17 30.29 1026 10 16.0934 0 0
12:35 pm 12:35 Cloudy 39 4 28 -2 65 65 SE 9 15 30.28 1025 10 16.0934 0 0
12:55 pm 12:55 Cloudy 39 4 28 -2 65 65 SE 9 15 30.27 1025 10 16.0934 0 0
1:15 pm 13:15 Cloudy 39 4 28 -2 65 65 SSE 8 13 30.25 1024 10 16.0934 0 0
1:35 pm 13:35 Cloudy 41 5 30 -1 66 66 SSE 12 19 30.22 1023 10 16.0934 0 0
1:55 pm 13:55 Cloudy 41 5 30 -1 66 66 SSE 12 19 30.19 1022 10 16.0934 0 0
2:15 pm 14:15 Cloudy 41 5 30 -1 66 66 SE 10 17 30.18 1022 10 16.0934 0 0
2:35 pm 14:35 Cloudy 41 5 32 0 70 70 SE 10 17 30.16 1021 10 16.0934 0 0
2:55 pm 14:55 Cloudy 41 5 30 -1 66 66 SE 8 13 30.15 1021 10 16.0934 0 0
3:15 pm 15:15 Cloudy 39 4 32 0 75 75 SSE 8 13 30.16 1021 10 16.0934 0 0
3:35 pm 15:35 Cloudy 39 4 32 0 75 75 SSE 12 19 30.15 1021 10 16.0934 0 0
3:55 pm 15:55 Cloudy 39 4 32 0 75 75 SE 13 20 30.15 1021 10 16.0934 0 0
4:15 pm 16:15 Cloudy 39 4 32 0 75 75 SSE 8 13 30.14 1021 10 16.0934 0 0
4:35 pm 16:35 Cloudy 39 4 32 0 75 75 SSE 10 17 30.13 1020 10 16.0934 0 0
4:55 pm 16:55 Cloudy 39 4 32 0 75 75 SE 10 17 30.12 1020 10 16.0934 0 0
5:15 pm 17:15 Partly Cloudy 37 3 32 0 81 81 SSE 7 11 30.11 1020 10 16.0934 0 0
5:35 pm 17:35 Mostly Cloudy 37 3 32 0 81 81 SE 8 13 30.11 1020 10 16.0934 0 0
5:55 pm 17:55 Mostly Cloudy 37 3 32 0 81 81 SSE 7 11 30.1 1019 10 16.0934 0 0
6:15 pm 18:15 Clear 37 3 32 0 81 81 SSE 7 11 30.09 1019 10 16.0934 0 0
6:35 pm 18:35 Clear 37 3 32 0 81 81 SSE 6 9 30.09 1019 10 16.0934 0 0
6:55 pm 18:55 Clear 37 3 32 0 81 81 SSE 6 9 30.09 1019 10 16.0934 0 0
7:15 pm 19:15 Clear 37 3 32 0 81 81 SSE 7 11 30.08 1019 10 16.0934 0 0
7:35 pm 19:35 Clear 36 2 32 0 87 87 S 9 15 30.07 1018 10 16.0934 0 0
7:55 pm 19:55 Clear 36 2 32 0 87 87 S 7 11 30.07 1018 10 16.0934 0 0
8:15 pm 20:15 Clear 36 2 32 0 87 87 S 6 9 30.06 1018 10 16.0934 0 0
8:35 pm 20:35 Clear 34 1 32 0 93 93 S 5 7 30.06 1018 10 16.0934 0 0
8:55 pm 20:55 Clear 34 1 32 0 93 93 SSW 3 6 30.05 1018 10 16.0934 0 0
9:15 pm 21:15 Clear 36 2 32 0 87 87 S 5 7 30.04 1017 10 16.0934 0 0
9:35 pm 21:35 Clear 34 1 32 0 93 93 Calm 30.04 1017 10 16.0934 0 0
9:55 pm 21:55 Clear 34 1 32 0 93 93 Calm 30.04 1017 10 16.0934 0 0
10:15 pm 22:15 Mostly Cloudy 34 1 32 0 93 93 Calm 30.04 1017 10 16.0934 0 0
10:35 pm 22:35 Cloudy 34 1 32 0 93 93 Calm 30.03 1017 10 16.0934 0 0
10:55 pm 22:55 Cloudy 36 2 34 1 93 93 S 3 6 30.02 1017 10 16.0934 0 0
11:15 pm 23:15 Cloudy 36 2 34 1 93 93 S 5 7 30 1016 10 16.0934 0 0
11:35 pm 23:35 Cloudy 36 2 34 1 93 93 S 5 7 30 1016 10 16.0934 0 0
11:55 pm 23:55 Cloudy 36 2 34 1 93 93 S 5 7 29.99 1016 10 16.0934 0 0

Powered by AerisWeather